User: anonymous   Login
Location: Iola
(37.9240°N, 95.4000°W)
Time: 11:18:19
(UTC-06:00)
Language:

Meteor 2-10 Rocket - Orbit

View from above orbital plane
View from above orbital plane
View from above satellite
View from above satellite

Ground track
Ground track

The orbit data is extracted from the following two-line orbital elements,

1 14453U 83109B   17054.54288905  .00000040  00000-0  10819-4 0  9993
2 14453  81.1653 220.6208 0105484  32.9508 327.8186 14.24667447731340
Epoch (UTC): 23 February 2017 13:01:45
Eccentricity: 0.0105484
inclination: 81.1653°
perigee height: 734 km
apogee height: 885 km
right ascension of ascending node: 220.6208°
argument of perigee: 32.9508°
revolutions per day: 14.24667447
mean anomaly at epoch: 327.8186°
orbit number at epoch: 73134

The dashed part of the orbit path shows where the satellite is in the earth's shadow,  

DLR